TimePST,TemperatureF,Dew PointF,Humidity,Sea Level PressureIn,VisibilityMPH,Wind Direction,Wind SpeedMPH,Gust SpeedMPH,PrecipitationIn,Events,Conditions,WindDirDegrees,DateUTC
12:51 AM,43.0,21.0,42,30.35,10.0,ENE,9.2,-,N/A,,Clear,70,2013-01-15 08:51:00
1:51 AM,43.0,23.0,45,30.36,10.0,East,10.4,-,N/A,,Clear,100,2013-01-15 09:51:00
2:51 AM,42.1,23.0,47,30.37,10.0,East,10.4,-,N/A,,Clear,90,2013-01-15 10:51:00
3:51 AM,42.1,27.0,55,30.37,10.0,East,13.8,-,N/A,,Clear,90,2013-01-15 11:51:00
4:51 AM,41.0,28.0,60,30.37,10.0,East,11.5,-,N/A,,Clear,80,2013-01-15 12:51:00
5:51 AM,41.0,28.9,62,30.39,10.0,East,12.7,-,N/A,,Clear,90,2013-01-15 13:51:00
6:51 AM,41.0,28.9,62,30.40,10.0,ESE,9.2,-,N/A,,Clear,110,2013-01-15 14:51:00
7:51 AM,44.1,30.0,58,30.42,10.0,SE,5.8,-,N/A,,Clear,130,2013-01-15 15:51:00
8:51 AM,46.0,33.1,61,30.44,10.0,SSE,4.6,-,N/A,,Clear,160,2013-01-15 16:51:00
9:51 AM,48.9,30.9,50,30.45,10.0,Calm,Calm,-,N/A,,Clear,0,2013-01-15 17:51:00
11:51 AM,48.9,28.9,46,30.39,10.0,NW,3.5,-,N/A,,Clear,320,2013-01-15 19:51:00
1:51 PM,51.1,32.0,48,30.35,10.0,WSW,5.8,-,N/A,,Clear,250,2013-01-15 21:51:00
2:51 PM,51.1,27.0,39,30.35,10.0,West,9.2,-,N/A,,Clear,260,2013-01-15 22:51:00
3:51 PM,48.9,30.0,48,30.36,10.0,West,8.1,-,N/A,,Clear,260,2013-01-15 23:51:00
4:51 PM,48.0,30.9,52,30.37,10.0,WSW,8.1,-,N/A,,Clear,250,2013-01-16 00:51:00
5:51 PM,46.9,30.0,52,30.38,10.0,WSW,8.1,-,N/A,,Clear,240,2013-01-16 01:51:00
6:51 PM,48.0,21.9,36,30.38,10.0,West,6.9,-,N/A,,Clear,270,2013-01-16 02:51:00
7:51 PM,46.9,21.9,37,30.38,10.0,WNW,8.1,-,N/A,,Clear,290,2013-01-16 03:51:00
8:51 PM,46.9,25.0,42,30.38,10.0,NW,5.8,-,N/A,,Clear,310,2013-01-16 04:51:00
9:51 PM,48.0,24.1,39,30.37,10.0,NW,5.8,-,N/A,,Clear,310,2013-01-16 05:51:00
10:51 PM,50.0,24.1,36,30.36,10.0,WNW,3.5,-,N/A,,Clear,300,2013-01-16 06:51:00
11:51 PM,54.0,17.1,23,30.35,10.0,Calm,Calm,-,N/A,,Clear,0,2013-01-16 07:51:00